Regional Weather Roundup
Issued by NWS

Home | Current Version | Previous Version | Text Only | Print | Product List | Glossary Off
Versions: 1 2 3 4 5 6 7 8 9 10 11 12 13 14 15 16 17 18 19 20 21 22 23 24 25 26 27 28 29 30 31 32 33 34 35 36 37 38 39 40 41 42 43 44 45 46 47 48 49 50

488
ASUS43 KLSX 262107
RWRMO

WEATHER SUMMARY FOR MISSOURI
NATIONAL WEATHER SERVICE SPRINGFIELD MO
400 PM CDT MON SEP 26 2016

NOTE: "FAIR" INDICATES FEW OR NO CLOUDS BELOW 12,000 FEET WITH NO
       SIGNIFICANT WEATHER AND/OR OBSTRUCTIONS TO VISIBILITY.
       CURRENT SKY AND/OR WEATHER CONDITIONS ARE NOT AVAILABLE FOR
       CHILLICOTHE AND FARMINGTON.

MOZ001>031-035>038-043-044-053-054-262200-
...NORTHERN AND WESTERN MISSOURI...

CITY           SKY/WX    TMP DP  RH WIND       PRES   REMARKS
KANSAS CTY INT SUNNY     73  42  32 W10       30.18F
KANSAS C DTWN  SUNNY     74  40  29 SW9       30.17F
LEE`S SUMMIT   SUNNY     72  39  30 NW8       30.19F
ST JOSEPH      SUNNY     75  41  29 NW17G23   30.16F
CHILLICOTHE      N/A     74  41  30 VRB7      30.16S
KIRKSVILLE     SUNNY     71  39  31 W15G22    30.13F

$$
MOZ066>068-077>081-088>096-101>105-262200-
...SOUTHWEST MISSOURI...

CITY           SKY/WX    TMP DP  RH WIND       PRES   REMARKS
SPRINGFIELD    SUNNY     72  40  31 NW12      30.18F
JOPLIN         SUNNY     72  41  32 N8        30.20F
BRANSON        MOSUNNY   73  39  29 NW12      30.18F

$$
MOZ032>034-039>042-045>050-055>058-069>072-262200-
...CENTRAL MISSOURI...

CITY           SKY/WX    TMP DP  RH WIND       PRES   REMARKS
COLUMBIA       SUNNY     73  37  27 W10       30.14F
JEFFERSON CITY SUNNY     74  34  23 NW8       30.14F
ROLLA          SUNNY     71  40  32 NW12      30.15F
SEDALIA        SUNNY     76  35  22 W10       30.17F
WHITEMAN AFB   SUNNY     73  38  28 NW12      30.16F
OSAGE BEACH    SUNNY     72  40  31 VRB6      30.17F

$$
MOZ051-052-059>065-262200-
...EAST CENTRAL MISSOURI...

CITY           SKY/WX    TMP DP  RH WIND       PRES   REMARKS
ST LOUIS INTL  MOSUNNY   76  35  22 W10       30.11F
SPIRIT OF STL  SUNNY     74  38  27 W9        30.10F
ST CHARLES     SUNNY     74  37  26 W12       30.09F

$$
MOZ072>076-082>087-097>100-106>115-262200-
...SOUTH CENTRAL AND SOUTHEAST MISSOURI...

CITY           SKY/WX    TMP DP  RH WIND       PRES   REMARKS
CAPE GIRARDEAU NOT AVBL
FARMINGTON     SUNNY     71  44  37 NW9       30.13F
POPLAR BLUFF   SUNNY     76  50  40 N9        30.10

$$



USA.gov is the U.S. government's official web portal to all federal, state and local government web resources and services.